Regional Weather Roundup
Issued by NWS

Home | Current Version | Previous Version | Text Only | Print | Product List | Glossary Off
Versions: 1 2 3 4 5 6 7 8 9 10 11 12 13 14 15 16 17 18 19 20 21 22 23 24 25 26 27 28 29 30 31 32 33 34 35 36 37 38 39 40 41 42 43 44 45 46 47 48 49 50

000
ASUS43 KFSD 191510
RWRSD

WEATHER ROUNDUP FOR SOUTH DAKOTA
NATIONAL WEATHER SERVICE SIOUX FALLS SD
900 AM CST THU JAN 19 2017

NOTE: "FAIR" INDICATES FEW OR NO CLOUDS BELOW 12,000 FEET WITH NO
SIGNIFICANT WEATHER AND/OR OBSTRUCTIONS TO VISIBILITY.


SDZ001>005-009-010-012>017-191600-
NORTHWEST AND NORTH CENTRAL SOUTH DAKOTA

CITY           SKY/WX    TMP DP  RH WIND       PRES   REMARKS
BUFFALO          N/A     30  18  60 W7        29.43F WCI  23
FAITH            N/A     19  16  88 W5        29.50S WCI  12
MOBRIDGE         N/A     14   9  80 CALM      29.51R
$$

SDZ012>016-024>037-041>051-057-063-072>074-191600-
SOUTHWEST AND SOUTH CENTRAL SOUTH DAKOTA

CITY           SKY/WX    TMP DP  RH WIND       PRES   REMARKS
RAPID CTY ARPT CLOUDY    28  16  60 NW6       29.49F WCI  22
PIERRE         FOG       11   9  92 CALM      29.55S VSB 1/4
CUSTER         CLOUDY    31  13  47 NW5       29.53F WCI  26
ELLSWORTH AFB  CLOUDY    23  16  74 NW3       29.48F
PHILIP         CLOUDY     8   6  92 NW5       29.53F WCI   0
PINE RIDGE     CLOUDY    30  19  63 W9        29.53F WCI  22
SPEARFISH      FAIR      34  18  51 CALM      29.51S
WINNER         FAIR      34  29  82 S16       29.56S WCI  24
$$

SDZ004>011-016>023-039-040-191600-
NORTHEAST SOUTH DAKOTA

CITY           SKY/WX    TMP DP  RH WIND       PRES   REMARKS
ABERDEEN       FOG       24  20  84 S7        29.59F VSB 1/4 WCI  16
WATERTOWN      CLEAR     30  29  96 S16       29.63F WCI  19
BROOKINGS      CLEAR     32  31  96 S8        29.68F WCI  25
SISSETON         N/A     27  27 100 SE12      29.61F WCI  17
$$

SDZ017-020-022-023-036>040-048>070-191600-
SOUTHEAST SOUTH DAKOTA

CITY           SKY/WX    TMP DP  RH WIND       PRES   REMARKS
SIOUX FALLS    MOCLDY    36  34  92 S12       29.71S
HURON          PTCLDY    33  33 100 SE15      29.61F WCI  23
CHAMBERLAIN    CLOUDY    35  34  97 SE8       29.57S WCI  28
MITCHELL       FOG       34  34 100 S17       29.66F VSB 1/4 WCI  23
YANKTON        CLOUDY    36  34  93 S9        29.70S
$$

ABBREVIATIONS USED IN REMARKS
   TC - TEMPERATURE IN CELSIUS
  WCI - WIND CHILL INDEX
   HX - HEAT INDEX
  VSB - VISIBILITY





USA.gov is the U.S. government's official web portal to all federal, state and local government web resources and services.